Time,TemperatureF,DewpointF,PressureIn,WindDirection,WindDirectionDegrees,WindSpeedMPH,WindSpeedGustMPH,Humidity,HourlyPrecipIn,Conditions,Clouds,dailyrainin,SoftwareType,DateUTC
2013-08-12 00:00:00,66.5,64.4,30.17,NNE,24,0.0,1.0,93,0.00,,,0.05,WeatherCatV1.20B785,2013-08-12 04:00:00,
2013-08-12 00:01:00,66.5,64.4,30.17,NNE,24,0.0,1.0,93,0.00,,,0.00,WeatherCatV1.20B785,2013-08-12 04:01:00,
2013-08-12 00:03:00,66.5,64.4,30.16,NNE,24,0.0,0.0,93,0.00,,,0.00,WeatherCatV1.20B785,2013-08-12 04:03:00,
2013-08-12 00:08:00,66.5,64.4,30.16,NNE,24,0.0,0.0,93,0.00,,,0.00,WeatherCatV1.20B785,2013-08-12 04:08:00,
2013-08-12 00:13:00,66.5,64.4,30.16,NNE,24,0.0,0.0,93,0.00,,,0.00,WeatherCatV1.20B785,2013-08-12 04:13:00,
2013-08-12 00:18:00,66.5,64.4,30.16,NNE,24,0.0,0.0,93,0.00,,,0.00,WeatherCatV1.20B785,2013-08-12 04:18:00,
2013-08-12 00:23:00,66.5,64.4,30.16,NNE,24,0.0,0.0,93,0.00,,,0.00,WeatherCatV1.20B785,2013-08-12 04:23:00,
2013-08-12 00:28:00,66.6,64.5,30.16,NNE,24,0.0,0.0,93,0.00,,,0.00,WeatherCatV1.20B785,2013-08-12 04:28:00,
2013-08-12 00:33:00,66.6,64.8,30.16,NNE,24,0.0,0.0,94,0.00,,,0.00,WeatherCatV1.20B785,2013-08-12 04:33:00,
2013-08-12 00:38:00,66.7,64.9,30.16,NNE,24,0.0,1.0,94,0.00,,,0.00,WeatherCatV1.20B785,2013-08-12 04:38:00,
2013-08-12 00:43:00,66.7,64.9,30.16,NNE,27,0.0,5.0,94,0.00,,,0.00,WeatherCatV1.20B785,2013-08-12 04:43:00,
2013-08-12 00:48:00,66.7,64.6,30.16,NNE,28,3.0,3.0,93,0.00,,,0.00,WeatherCatV1.20B785,2013-08-12 04:48:00,
2013-08-12 00:53:00,66.8,64.7,30.16,NNE,28,0.0,0.0,93,0.00,,,0.00,WeatherCatV1.20B785,2013-08-12 04:53:00,
2013-08-12 00:58:00,66.8,64.7,30.16,NNE,28,0.0,4.0,93,0.00,,,0.00,WeatherCatV1.20B785,2013-08-12 04:58:00,
2013-08-12 01:03:00,66.8,64.7,30.16,NNE,29,0.0,1.0,93,0.00,,,0.00,WeatherCatV1.20B785,2013-08-12 05:03:00,
2013-08-12 01:08:00,66.8,64.7,30.16,NNE,29,2.0,4.0,93,0.00,,,0.00,WeatherCatV1.20B785,2013-08-12 05:08:00,
2013-08-12 01:13:00,66.8,64.7,30.15,NNE,29,0.0,3.0,93,0.00,,,0.00,WeatherCatV1.20B785,2013-08-12 05:13:00,
2013-08-12 01:18:00,66.8,64.7,30.15,NNE,29,0.0,0.0,93,0.00,,,0.00,WeatherCatV1.20B785,2013-08-12 05:18:00,
2013-08-12 01:23:00,66.7,64.6,30.15,NNE,30,0.0,4.0,93,0.00,,,0.00,WeatherCatV1.20B785,2013-08-12 05:23:00,
2013-08-12 01:28:00,66.7,64.6,30.15,NNE,30,0.0,0.0,93,0.00,,,0.00,WeatherCatV1.20B785,2013-08-12 05:28:00,
2013-08-12 01:33:00,66.6,64.5,30.15,NNE,30,0.0,0.0,93,0.00,,,0.00,WeatherCatV1.20B785,2013-08-12 05:33:00,
2013-08-12 01:38:00,66.5,64.4,30.15,NNE,30,0.0,0.0,93,0.00,,,0.00,WeatherCatV1.20B785,2013-08-12 05:38:00,
2013-08-12 01:43:00,66.4,64.3,30.14,NNE,30,0.0,0.0,93,0.00,,,0.00,WeatherCatV1.20B785,2013-08-12 05:43:00,
2013-08-12 01:48:00,66.3,64.2,30.14,NNE,30,0.0,3.0,93,0.00,,,0.00,WeatherCatV1.20B785,2013-08-12 05:48:00,
2013-08-12 01:53:00,66.3,64.2,30.14,NNE,30,2.0,2.0,93,0.00,,,0.00,WeatherCatV1.20B785,2013-08-12 05:53:00,
2013-08-12 01:58:00,66.3,64.2,30.14,NNE,30,0.0,0.0,93,0.00,,,0.00,WeatherCatV1.20B785,2013-08-12 05:58:00,
2013-08-12 02:02:00,66.2,64.1,30.15,NNE,30,0.0,0.0,93,0.00,,,0.00,WeatherCatV1.20B785,2013-08-12 06:02:00,
2013-08-12 02:07:00,66.3,64.2,30.15,NNE,30,0.0,0.0,93,0.00,,,0.00,WeatherCatV1.20B785,2013-08-12 06:07:00,
2013-08-12 02:12:00,66.3,64.2,30.15,NNE,30,0.0,0.0,93,0.00,,,0.00,WeatherCatV1.20B785,2013-08-12 06:12:00,
2013-08-12 02:17:00,66.3,64.2,30.15,NNE,30,0.0,0.0,93,0.00,,,0.00,WeatherCatV1.20B785,2013-08-12 06:17:00,
2013-08-12 02:22:00,66.2,64.1,30.15,NNE,30,0.0,3.0,93,0.00,,,0.00,WeatherCatV1.20B785,2013-08-12 06:22:00,
2013-08-12 02:27:00,66.2,64.1,30.15,NNE,30,0.0,3.0,93,0.00,,,0.00,WeatherCatV1.20B785,2013-08-12 06:27:00,
2013-08-12 02:32:00,66.1,64.0,30.15,NNE,30,0.0,3.0,93,0.00,,,0.00,WeatherCatV1.20B785,2013-08-12 06:32:00,
2013-08-12 02:37:00,66.2,64.1,30.14,NNE,31,0.0,3.0,93,0.00,,,0.00,WeatherCatV1.20B785,2013-08-12 06:37:00,
2013-08-12 02:42:00,66.2,64.1,30.14,NNE,32,0.0,0.0,93,0.00,,,0.00,WeatherCatV1.20B785,2013-08-12 06:42:00,
2013-08-12 02:47:00,66.2,64.1,30.14,NNE,32,0.0,1.0,93,0.00,,,0.00,WeatherCatV1.20B785,2013-08-12 06:47:00,
2013-08-12 02:52:00,66.2,64.1,30.14,NNE,32,0.0,0.0,93,0.00,,,0.00,WeatherCatV1.20B785,2013-08-12 06:52:00,
2013-08-12 02:57:00,66.2,64.1,30.14,NNE,32,0.0,1.0,93,0.00,,,0.00,WeatherCatV1.20B785,2013-08-12 06:57:00,
2013-08-12 03:02:00,66.2,64.1,30.14,NNE,32,0.0,0.0,93,0.00,,,0.00,WeatherCatV1.20B785,2013-08-12 07:02:00,
2013-08-12 03:07:00,66.1,64.0,30.14,NNE,32,0.0,0.0,93,0.00,,,0.00,WeatherCatV1.20B785,2013-08-12 07:07:00,
2013-08-12 03:12:00,66.1,64.0,30.14,NNE,32,3.0,4.0,93,0.00,,,0.00,WeatherCatV1.20B785,2013-08-12 07:12:00,
2013-08-12 03:17:00,66.1,64.0,30.14,NNE,30,0.0,6.0,93,0.00,,,0.00,WeatherCatV1.20B785,2013-08-12 07:17:00,
2013-08-12 03:22:00,66.1,64.0,30.14,NNE,30,0.0,6.0,93,0.00,,,0.00,WeatherCatV1.20B785,2013-08-12 07:22:00,
2013-08-12 03:27:00,66.1,64.0,30.14,NNE,31,0.0,0.0,93,0.00,,,0.00,WeatherCatV1.20B785,2013-08-12 07:27:00,
2013-08-12 03:32:00,66.1,64.3,30.14,NNE,31,0.0,1.0,94,0.00,,,0.00,WeatherCatV1.20B785,2013-08-12 07:32:00,
2013-08-12 03:37:00,66.1,64.3,30.14,NNE,23,0.0,1.0,94,0.00,,,0.00,WeatherCatV1.20B785,2013-08-12 07:37:00,
2013-08-12 03:42:00,66.1,64.3,30.14,NNE,22,0.0,0.0,94,0.00,,,0.00,WeatherCatV1.20B785,2013-08-12 07:42:00,
2013-08-12 03:47:00,66.1,64.3,30.14,NNE,23,4.0,4.0,94,0.00,,,0.00,WeatherCatV1.20B785,2013-08-12 07:47:00,
2013-08-12 03:52:00,66.1,64.3,30.13,NNE,22,0.0,1.0,94,0.00,,,0.00,WeatherCatV1.20B785,2013-08-12 07:52:00,
2013-08-12 03:57:00,66.1,64.3,30.13,NNE,15,2.0,10.0,94,0.00,,,0.00,WeatherCatV1.20B785,2013-08-12 07:57:00,
2013-08-12 04:02:00,66.0,64.2,30.13,NNE,15,0.0,1.0,94,0.00,,,0.00,WeatherCatV1.20B785,2013-08-12 08:02:00,
2013-08-12 04:07:00,66.0,64.2,30.13,NNE,17,0.0,2.0,94,0.00,,,0.00,WeatherCatV1.20B785,2013-08-12 08:07:00,
2013-08-12 04:12:00,65.9,64.1,30.13,NNE,17,0.0,5.0,94,0.00,,,0.00,WeatherCatV1.20B785,2013-08-12 08:12:00,
2013-08-12 04:17:00,65.8,64.0,30.13,NNE,17,0.0,3.0,94,0.00,,,0.00,WeatherCatV1.20B785,2013-08-12 08:17:00,
2013-08-12 04:22:00,65.8,64.3,30.13,NNE,19,0.0,1.0,95,0.00,,,0.00,WeatherCatV1.20B785,2013-08-12 08:22:00,
2013-08-12 04:27:00,65.8,64.3,30.13,NNE,22,0.0,1.0,95,0.00,,,0.00,WeatherCatV1.20B785,2013-08-12 08:27:00,
2013-08-12 04:32:00,65.8,64.3,30.14,NNE,17,1.0,3.0,95,0.00,,,0.00,WeatherCatV1.20B785,2013-08-12 08:32:00,
2013-08-12 04:37:00,65.8,64.6,30.14,NNE,28,0.0,4.0,96,0.00,,,0.00,WeatherCatV1.20B785,2013-08-12 08:37:00,
2013-08-12 04:42:00,65.9,64.7,30.13,NNE,14,0.0,10.0,96,0.00,,,0.00,WeatherCatV1.20B785,2013-08-12 08:42:00,
2013-08-12 04:47:00,66.0,64.8,30.14,NNE,15,3.0,3.0,96,0.00,,,0.00,WeatherCatV1.20B785,2013-08-12 08:47:00,
2013-08-12 04:52:00,66.0,64.8,30.14,NNE,19,0.0,1.0,96,0.00,,,0.00,WeatherCatV1.20B785,2013-08-12 08:52:00,
2013-08-12 04:57:00,66.0,64.8,30.14,NNE,21,0.0,5.0,96,0.00,,,0.00,WeatherCatV1.20B785,2013-08-12 08:57:00,
2013-08-12 05:02:00,66.0,64.8,30.14,NNE,30,0.0,2.0,96,0.00,,,0.00,WeatherCatV1.20B785,2013-08-12 09:02:00,
2013-08-12 05:07:00,65.9,65.0,30.14,NE,38,0.0,3.0,97,0.00,,,0.00,WeatherCatV1.20B785,2013-08-12 09:07:00,
2013-08-12 05:12:00,65.9,65.0,30.14,NNE,26,0.0,2.0,97,0.00,,,0.00,WeatherCatV1.20B785,2013-08-12 09:12:00,
2013-08-12 05:17:00,66.0,65.1,30.13,NE,38,0.0,7.0,97,0.00,,,0.00,WeatherCatV1.20B785,2013-08-12 09:17:00,
2013-08-12 05:22:00,65.9,65.0,30.14,NNE,14,0.0,9.0,97,0.00,,,0.00,WeatherCatV1.20B785,2013-08-12 09:22:00,
2013-08-12 05:27:00,65.9,65.0,30.13,NNE,33,0.0,4.0,97,0.00,,,0.00,WeatherCatV1.20B785,2013-08-12 09:27:00,
2013-08-12 05:32:00,65.9,65.0,30.13,NE,36,0.0,3.0,97,0.00,,,0.00,WeatherCatV1.20B785,2013-08-12 09:32:00,
2013-08-12 05:37:00,65.9,65.0,30.13,NNE,22,0.0,3.0,97,0.00,,,0.00,WeatherCatV1.20B785,2013-08-12 09:37:00,
2013-08-12 05:42:00,65.9,65.0,30.13,NNE,13,0.0,7.0,97,0.00,,,0.00,WeatherCatV1.20B785,2013-08-12 09:42:00,
2013-08-12 05:47:00,65.9,65.0,30.13,NNE,30,0.0,5.0,97,0.00,,,0.00,WeatherCatV1.20B785,2013-08-12 09:47:00,
2013-08-12 05:52:00,65.9,65.0,30.13,NNE,25,1.0,6.0,97,0.00,,,0.00,WeatherCatV1.20B785,2013-08-12 09:52:00,
2013-08-12 05:57:00,65.9,65.0,30.14,NNE,33,4.0,4.0,97,0.00,,,0.00,WeatherCatV1.20B785,2013-08-12 09:57:00,
2013-08-12 06:02:00,65.8,64.6,30.13,NE,36,0.0,1.0,96,0.00,,,0.00,WeatherCatV1.20B785,2013-08-12 10:02:00,
2013-08-12 06:07:00,65.8,64.6,30.13,NE,46,0.0,4.0,96,0.00,,,0.00,WeatherCatV1.20B785,2013-08-12 10:07:00,
2013-08-12 06:12:00,65.8,64.9,30.13,NNE,24,0.0,6.0,97,0.00,,,0.00,WeatherCatV1.20B785,2013-08-12 10:12:00,
2013-08-12 06:17:00,65.8,64.9,30.13,NNE,26,0.0,3.0,97,0.00,,,0.00,WeatherCatV1.20B785,2013-08-12 10:17:00,
2013-08-12 06:22:00,65.7,64.8,30.14,NNE,28,0.0,5.0,97,0.00,,,0.00,WeatherCatV1.20B785,2013-08-12 10:22:00,
2013-08-12 06:27:00,65.7,64.8,30.14,NNE,16,0.0,5.0,97,0.00,,,0.00,WeatherCatV1.20B785,2013-08-12 10:27:00,
2013-08-12 06:32:00,65.7,64.8,30.14,NNE,18,0.0,1.0,97,0.00,,,0.00,WeatherCatV1.20B785,2013-08-12 10:32:00,
2013-08-12 06:37:00,65.7,64.8,30.14,NNE,18,0.0,1.0,97,0.00,,,0.00,WeatherCatV1.20B785,2013-08-12 10:37:00,
2013-08-12 06:42:00,65.7,64.8,30.14,NNE,18,0.0,1.0,97,0.00,,,0.00,WeatherCatV1.20B785,2013-08-12 10:42:00,
2013-08-12 06:47:00,65.7,64.8,30.14,NNE,18,0.0,3.0,97,0.00,,,0.00,WeatherCatV1.20B785,2013-08-12 10:47:00,
2013-08-12 06:52:00,65.7,64.8,30.14,NNE,26,0.0,4.0,97,0.00,,,0.00,WeatherCatV1.20B785,2013-08-12 10:52:00,
2013-08-12 06:57:00,65.6,64.4,30.14,NNE,26,0.0,0.0,96,0.00,,,0.00,WeatherCatV1.20B785,2013-08-12 10:57:00,
2013-08-12 07:02:00,65.7,64.5,30.14,NNE,26,0.0,0.0,96,0.00,,,0.00,WeatherCatV1.20B785,2013-08-12 11:02:00,
2013-08-12 07:07:00,65.8,64.9,30.14,ENE,66,0.0,7.0,97,0.00,,,0.00,WeatherCatV1.20B785,2013-08-12 11:07:00,
2013-08-12 07:12:00,65.9,65.0,30.14,NNE,30,0.0,1.0,97,0.00,,,0.00,WeatherCatV1.20B785,2013-08-12 11:12:00,
2013-08-12 07:17:00,66.0,64.8,30.14,NNE,29,3.0,4.0,96,0.00,,,0.00,WeatherCatV1.20B785,2013-08-12 11:17:00,
2013-08-12 07:22:00,66.1,64.9,30.14,NNE,16,2.0,7.0,96,0.00,,,0.00,WeatherCatV1.20B785,2013-08-12 11:22:00,
2013-08-12 07:27:00,66.2,65.0,30.14,NNE,21,4.0,5.0,96,0.00,,,0.00,WeatherCatV1.20B785,2013-08-12 11:27:00,
2013-08-12 07:32:00,66.3,65.1,30.14,NNE,12,0.0,4.0,96,0.00,,,0.00,WeatherCatV1.20B785,2013-08-12 11:32:00,
2013-08-12 07:37:00,66.3,65.1,30.13,NNE,30,0.0,5.0,96,0.00,,,0.00,WeatherCatV1.20B785,2013-08-12 11:37:00,
2013-08-12 07:42:00,66.2,65.0,30.14,NE,36,0.0,3.0,96,0.00,,,0.00,WeatherCatV1.20B785,2013-08-12 11:42:00,
2013-08-12 07:47:00,66.2,65.0,30.14,NNE,29,0.0,6.0,96,0.00,,,0.00,WeatherCatV1.20B785,2013-08-12 11:47:00,
2013-08-12 07:52:00,66.1,64.9,30.14,NE,52,0.0,7.0,96,0.00,,,0.00,WeatherCatV1.20B785,2013-08-12 11:52:00,
2013-08-12 07:57:00,66.1,64.9,30.14,NNE,26,0.0,4.0,96,0.00,,,0.00,WeatherCatV1.20B785,2013-08-12 11:57:00,
2013-08-12 08:02:00,66.2,65.0,30.14,NNE,32,0.0,5.0,96,0.00,,,0.00,WeatherCatV1.20B785,2013-08-12 12:02:00,
2013-08-12 08:07:00,66.2,65.0,30.13,NE,40,0.0,3.0,96,0.00,,,0.00,WeatherCatV1.20B785,2013-08-12 12:07:00,
2013-08-12 08:12:00,66.3,65.1,30.13,NE,49,0.0,1.0,96,0.00,,,0.00,WeatherCatV1.20B785,2013-08-12 12:12:00,
2013-08-12 08:17:00,66.3,65.1,30.13,NE,36,0.0,5.0,96,0.00,,,0.00,WeatherCatV1.20B785,2013-08-12 12:17:00,
2013-08-12 08:22:00,66.3,65.1,30.13,NNE,29,3.0,3.0,96,0.00,,,0.00,WeatherCatV1.20B785,2013-08-12 12:22:00,
2013-08-12 08:27:00,66.3,65.1,30.13,NE,40,0.0,7.0,96,0.00,,,0.00,WeatherCatV1.20B785,2013-08-12 12:27:00,
2013-08-12 08:32:00,66.3,65.1,30.13,NNE,26,0.0,9.0,96,0.00,,,0.00,WeatherCatV1.20B785,2013-08-12 12:32:00,
2013-08-12 08:37:00,66.4,65.2,30.13,NE,52,2.0,8.0,96,0.00,,,0.00,WeatherCatV1.20B785,2013-08-12 12:37:00,
2013-08-12 08:42:00,66.4,65.2,30.13,NNE,26,1.0,3.0,96,0.00,,,0.00,WeatherCatV1.20B785,2013-08-12 12:42:00,
2013-08-12 08:47:00,66.5,65.3,30.13,NNE,28,0.0,3.0,96,0.00,,,0.00,WeatherCatV1.20B785,2013-08-12 12:47:00,
2013-08-12 08:52:00,66.6,65.4,30.13,NNE,24,0.0,3.0,96,0.00,,,0.00,WeatherCatV1.20B785,2013-08-12 12:52:00,
2013-08-12 08:57:00,66.7,65.5,30.14,NNE,30,2.0,3.0,96,0.00,,,0.00,WeatherCatV1.20B785,2013-08-12 12:57:00,
2013-08-12 09:02:00,66.8,65.6,30.14,NE,34,0.0,1.0,96,0.00,,,0.00,WeatherCatV1.20B785,2013-08-12 13:02:00,
2013-08-12 09:07:00,66.9,65.7,30.14,NNE,32,0.0,4.0,96,0.00,,,0.00,WeatherCatV1.20B785,2013-08-12 13:07:00,
2013-08-12 09:12:00,67.0,65.8,30.14,NNE,28,2.0,8.0,96,0.00,,,0.00,WeatherCatV1.20B785,2013-08-12 13:12:00,
2013-08-12 09:17:00,67.1,65.9,30.14,NNE,12,4.0,9.0,96,0.00,,,0.00,WeatherCatV1.20B785,2013-08-12 13:17:00,
2013-08-12 09:22:00,67.2,66.0,30.14,NNE,15,0.0,6.0,96,0.00,,,0.00,WeatherCatV1.20B785,2013-08-12 13:22:00,
2013-08-12 09:27:00,67.3,66.1,30.14,NNE,16,1.0,6.0,96,0.00,,,0.00,WeatherCatV1.20B785,2013-08-12 13:27:00,
2013-08-12 09:32:00,67.5,66.3,30.14,NNE,18,2.0,6.0,96,0.00,,,0.00,WeatherCatV1.20B785,2013-08-12 13:32:00,
2013-08-12 09:37:00,67.6,66.4,30.14,NNE,21,0.0,5.0,96,0.00,,,0.00,WeatherCatV1.20B785,2013-08-12 13:37:00,
2013-08-12 09:42:00,67.8,66.6,30.14,NE,55,0.0,6.0,96,0.00,,,0.00,WeatherCatV1.20B785,2013-08-12 13:42:00,
2013-08-12 09:47:00,68.0,66.8,30.15,NNE,32,4.0,4.0,96,0.00,,,0.00,WeatherCatV1.20B785,2013-08-12 13:47:00,
2013-08-12 09:52:00,68.1,66.6,30.14,NNE,22,4.0,4.0,95,0.00,,,0.00,WeatherCatV1.20B785,2013-08-12 13:52:00,
2013-08-12 09:57:00,68.5,67.0,30.14,NE,40,3.0,3.0,95,0.00,,,0.00,WeatherCatV1.20B785,2013-08-12 13:57:00,
2013-08-12 10:02:00,68.9,67.1,30.14,NNE,25,5.0,6.0,94,0.00,,,0.00,WeatherCatV1.20B785,2013-08-12 14:02:00,
2013-08-12 10:07:00,69.3,67.5,30.14,NNE,22,5.0,5.0,94,0.00,,,0.00,WeatherCatV1.20B785,2013-08-12 14:07:00,
2013-08-12 10:12:00,69.7,67.6,30.14,NNE,22,1.0,4.0,93,0.00,,,0.00,WeatherCatV1.20B785,2013-08-12 14:12:00,
2013-08-12 10:17:00,70.3,67.5,30.14,NNE,21,0.0,0.0,91,0.00,,,0.00,WeatherCatV1.20B785,2013-08-12 14:17:00,
2013-08-12 10:22:00,71.0,68.6,30.15,NNE,21,0.0,2.0,92,0.00,,,0.00,WeatherCatV1.20B785,2013-08-12 14:22:00,
2013-08-12 10:27:00,71.5,68.1,30.15,NNE,19,0.0,7.0,89,0.00,,,0.00,WeatherCatV1.20B785,2013-08-12 14:27:00,
2013-08-12 10:32:00,72.2,68.4,30.15,NNE,19,4.0,4.0,88,0.00,,,0.00,WeatherCatV1.20B785,2013-08-12 14:32:00,
2013-08-12 10:37:00,72.7,68.3,30.15,NNE,26,4.0,5.0,86,0.00,,,0.00,WeatherCatV1.20B785,2013-08-12 14:37:00,
2013-08-12 10:42:00,73.1,68.3,30.15,NNE,16,1.0,7.0,85,0.00,,,0.00,WeatherCatV1.20B785,2013-08-12 14:42:00,
2013-08-12 10:47:00,73.6,68.8,30.15,NNE,20,3.0,5.0,85,0.00,,,0.00,WeatherCatV1.20B785,2013-08-12 14:47:00,
2013-08-12 10:52:00,74.0,68.5,30.15,NNE,26,0.0,12.0,83,0.00,,,0.00,WeatherCatV1.20B785,2013-08-12 14:52:00,
2013-08-12 10:57:00,74.1,68.2,30.15,NE,52,0.0,4.0,82,0.00,,,0.00,WeatherCatV1.20B785,2013-08-12 14:57:00,
2013-08-12 11:02:00,74.0,68.5,30.15,NNE,17,0.0,5.0,83,0.00,,,0.00,WeatherCatV1.20B785,2013-08-12 15:02:00,
2013-08-12 11:07:00,74.1,68.6,30.15,SW,229,0.0,4.0,83,0.00,,,0.00,WeatherCatV1.20B785,2013-08-12 15:07:00,
2013-08-12 11:12:00,74.1,68.2,30.15,NNE,25,3.0,12.0,82,0.00,,,0.00,WeatherCatV1.20B785,2013-08-12 15:12:00,
2013-08-12 11:17:00,74.3,68.8,30.14,North,11,0.0,11.0,83,0.00,,,0.00,WeatherCatV1.20B785,2013-08-12 15:17:00,
2013-08-12 11:22:00,74.8,68.6,30.14,NE,34,0.0,9.0,81,0.00,,,0.00,WeatherCatV1.20B785,2013-08-12 15:22:00,
2013-08-12 11:27:00,75.4,69.5,30.14,NNE,25,0.0,4.0,82,0.00,,,0.00,WeatherCatV1.20B785,2013-08-12 15:27:00,
2013-08-12 11:32:00,75.5,68.5,30.14,NNE,26,0.0,3.0,79,0.00,,,0.00,WeatherCatV1.20B785,2013-08-12 15:32:00,
2013-08-12 11:37:00,75.5,68.9,30.14,NNE,16,2.0,2.0,80,0.00,,,0.00,WeatherCatV1.20B785,2013-08-12 15:37:00,
2013-08-12 11:42:00,75.8,68.8,30.14,WSW,253,4.0,4.0,79,0.00,,,0.00,WeatherCatV1.20B785,2013-08-12 15:42:00,
2013-08-12 11:47:00,76.1,68.7,30.14,North,5,5.0,7.0,78,0.00,,,0.00,WeatherCatV1.20B785,2013-08-12 15:47:00,
2013-08-12 11:52:00,76.5,68.7,30.14,West,265,0.0,7.0,77,0.00,,,0.00,WeatherCatV1.20B785,2013-08-12 15:52:00,
2013-08-12 11:55:00,76.7,68.9,30.14,West,267,0.0,1.0,77,0.00,,,0.00,WeatherCatV1.20B785,2013-08-12 15:55:00,
2013-08-12 12:00:00,76.9,69.5,30.14,North,11,0.0,1.0,78,0.00,,,0.00,WeatherCatV1.20B785,2013-08-12 16:00:00,
2013-08-12 12:05:00,77.1,69.7,30.13,NNE,28,0.0,3.0,78,0.00,,,0.00,WeatherCatV1.20B785,2013-08-12 16:05:00,
2013-08-12 12:10:00,77.0,69.6,30.13,NNE,24,4.0,5.0,78,0.00,,,0.00,WeatherCatV1.20B785,2013-08-12 16:10:00,
2013-08-12 12:15:00,77.3,69.5,30.14,NNE,29,2.0,10.0,77,0.00,,,0.00,WeatherCatV1.20B785,2013-08-12 16:15:00,
2013-08-12 12:19:00,77.2,69.0,30.13,North,9,0.0,7.0,76,0.00,,,0.00,WeatherCatV1.20B785,2013-08-12 16:19:00,
2013-08-12 12:24:00,77.2,69.4,30.13,North,10,0.0,9.0,77,0.00,,,0.00,WeatherCatV1.20B785,2013-08-12 16:24:00,
2013-08-12 12:29:00,77.5,70.1,30.14,NE,51,0.0,5.0,78,0.00,,,0.00,WeatherCatV1.20B785,2013-08-12 16:29:00,
2013-08-12 12:34:00,77.8,69.2,30.14,NNE,32,2.0,5.0,75,0.00,,,0.00,WeatherCatV1.20B785,2013-08-12 16:34:00,
2013-08-12 12:39:00,77.7,69.9,30.13,NNE,16,0.0,0.0,77,0.00,,,0.00,WeatherCatV1.20B785,2013-08-12 16:39:00,
2013-08-12 12:44:00,77.1,69.3,30.14,North,355,0.0,4.0,77,0.00,,,0.00,WeatherCatV1.20B785,2013-08-12 16:44:00,
2013-08-12 12:49:00,76.8,69.4,30.13,NE,51,0.0,6.0,78,0.00,,,0.00,WeatherCatV1.20B785,2013-08-12 16:49:00,
2013-08-12 12:54:00,76.8,69.0,30.13,WNW,284,0.0,0.0,77,0.00,,,0.00,WeatherCatV1.20B785,2013-08-12 16:54:00,
2013-08-12 12:59:00,77.1,68.6,30.13,NNE,22,0.0,10.0,75,0.00,,,0.00,WeatherCatV1.20B785,2013-08-12 16:59:00,
2013-08-12 13:04:00,77.6,69.8,30.13,NNE,22,0.0,0.0,77,0.00,,,0.00,WeatherCatV1.20B785,2013-08-12 17:04:00,
2013-08-12 13:09:00,78.1,71.0,30.13,NNE,30,0.0,4.0,79,0.00,,,0.00,WeatherCatV1.20B785,2013-08-12 17:09:00,
2013-08-12 13:14:00,78.6,70.4,30.12,NNE,29,0.0,3.0,76,0.00,,,0.00,WeatherCatV1.20B785,2013-08-12 17:14:00,
2013-08-12 13:19:00,78.7,69.7,30.12,NNE,26,0.0,6.0,74,0.00,,,0.00,WeatherCatV1.20B785,2013-08-12 17:19:00,
2013-08-12 13:24:00,78.5,70.3,30.12,NNE,24,0.0,6.0,76,0.00,,,0.00,WeatherCatV1.20B785,2013-08-12 17:24:00,
2013-08-12 13:29:00,78.0,70.6,30.11,NNE,27,0.0,0.0,78,0.00,,,0.00,WeatherCatV1.20B785,2013-08-12 17:29:00,
2013-08-12 13:34:00,77.7,69.5,30.11,NNE,26,0.0,1.0,76,0.00,,,0.00,WeatherCatV1.20B785,2013-08-12 17:34:00,
2013-08-12 13:39:00,77.8,70.0,30.11,NNE,19,2.0,7.0,77,0.00,,,0.00,WeatherCatV1.20B785,2013-08-12 17:39:00,
2013-08-12 13:44:00,77.7,69.9,30.11,NNE,32,0.0,5.0,77,0.00,,,0.00,WeatherCatV1.20B785,2013-08-12 17:44:00,
2013-08-12 13:49:00,77.6,69.8,30.11,NNE,32,0.0,2.0,77,0.00,,,0.00,WeatherCatV1.20B785,2013-08-12 17:49:00,
2013-08-12 13:54:00,77.4,69.6,30.11,SW,228,0.0,0.0,77,0.00,,,0.00,WeatherCatV1.20B785,2013-08-12 17:54:00,
2013-08-12 13:59:00,77.2,69.0,30.10,North,0,1.0,1.0,76,0.00,,,0.00,WeatherCatV1.20B785,2013-08-12 17:59:00,
2013-08-12 14:04:00,77.4,70.0,30.10,NNE,19,0.0,1.0,78,0.00,,,0.00,WeatherCatV1.20B785,2013-08-12 18:04:00,
2013-08-12 14:09:00,77.7,68.7,30.10,NNE,18,0.0,3.0,74,0.00,,,0.00,WeatherCatV1.20B785,2013-08-12 18:09:00,
2013-08-12 14:14:00,77.9,69.3,30.10,NNE,19,0.0,1.0,75,0.00,,,0.00,WeatherCatV1.20B785,2013-08-12 18:14:00,
2013-08-12 14:19:00,77.9,69.7,30.09,NNE,19,0.0,1.0,76,0.00,,,0.00,WeatherCatV1.20B785,2013-08-12 18:19:00,
2013-08-12 14:24:00,78.1,70.3,30.09,NNE,13,0.0,5.0,77,0.00,,,0.00,WeatherCatV1.20B785,2013-08-12 18:24:00,
2013-08-12 14:29:00,78.7,69.3,30.08,NNE,13,0.0,1.0,73,0.00,,,0.00,WeatherCatV1.20B785,2013-08-12 18:29:00,
2013-08-12 14:34:00,79.4,69.6,30.08,North,0,3.0,3.0,72,0.00,,,0.00,WeatherCatV1.20B785,2013-08-12 18:34:00,
2013-08-12 14:39:00,79.6,71.0,30.08,NNE,12,0.0,6.0,75,0.00,,,0.00,WeatherCatV1.20B785,2013-08-12 18:39:00,
2013-08-12 14:44:00,79.8,70.8,30.08,North,11,0.0,0.0,74,0.00,,,0.00,WeatherCatV1.20B785,2013-08-12 18:44:00,
2013-08-12 14:49:00,79.8,70.8,30.08,WNW,288,0.0,0.0,74,0.00,,,0.00,WeatherCatV1.20B785,2013-08-12 18:49:00,
2013-08-12 14:54:00,79.7,69.4,30.07,NNW,348,0.0,1.0,71,0.00,,,0.00,WeatherCatV1.20B785,2013-08-12 18:54:00,
2013-08-12 14:59:00,78.9,69.9,30.08,NNW,348,0.0,0.0,74,0.00,,,0.00,WeatherCatV1.20B785,2013-08-12 18:59:00,
2013-08-12 15:04:00,78.0,70.2,30.07,NNW,348,0.0,0.0,77,0.00,,,0.00,WeatherCatV1.20B785,2013-08-12 19:04:00,
2013-08-12 15:09:00,76.9,69.5,30.07,NNW,348,0.0,0.0,78,0.00,,,0.00,WeatherCatV1.20B785,2013-08-12 19:09:00,
2013-08-12 15:14:00,75.7,68.7,30.07,NNW,348,0.0,0.0,79,0.00,,,0.00,WeatherCatV1.20B785,2013-08-12 19:14:00,
2013-08-12 15:19:00,74.8,68.6,30.07,NNW,348,0.0,1.0,81,0.00,,,0.00,WeatherCatV1.20B785,2013-08-12 19:19:00,
2013-08-12 15:24:00,74.2,68.3,30.07,NNW,348,0.0,0.0,82,0.00,,,0.00,WeatherCatV1.20B785,2013-08-12 19:24:00,
2013-08-12 15:29:00,73.7,68.6,30.07,NNW,348,0.0,0.0,84,0.00,,,0.00,WeatherCatV1.20B785,2013-08-12 19:29:00,
2013-08-12 15:34:00,73.1,68.7,30.06,NNW,348,0.0,0.0,86,0.00,,,0.00,WeatherCatV1.20B785,2013-08-12 19:34:00,
2013-08-12 15:39:00,72.6,68.2,30.07,NNW,348,0.0,1.0,86,0.00,,,0.00,WeatherCatV1.20B785,2013-08-12 19:39:00,
2013-08-12 15:44:00,72.1,68.3,30.06,NNW,348,0.0,0.0,88,0.00,,,0.00,WeatherCatV1.20B785,2013-08-12 19:44:00,
2013-08-12 15:49:00,71.9,68.8,30.07,NNW,348,0.0,0.0,90,0.00,,,0.00,WeatherCatV1.20B785,2013-08-12 19:49:00,
2013-08-12 15:54:00,71.7,69.2,30.07,NNW,348,0.0,0.0,92,0.00,,,0.00,WeatherCatV1.20B785,2013-08-12 19:54:00,
2013-08-12 15:59:00,71.4,68.6,30.07,NNW,348,0.0,2.0,91,0.00,,,0.01,WeatherCatV1.20B785,2013-08-12 19:59:00,
2013-08-12 16:04:00,71.1,68.3,30.07,NNW,348,0.0,0.0,91,0.00,,,0.01,WeatherCatV1.20B785,2013-08-12 20:04:00,
2013-08-12 16:09:00,70.6,67.8,30.08,NNW,348,0.0,1.0,91,0.00,,,0.01,WeatherCatV1.20B785,2013-08-12 20:09:00,
2013-08-12 16:14:00,70.2,67.8,30.08,NNW,348,0.0,0.0,92,0.04,,,0.02,WeatherCatV1.20B785,2013-08-12 20:14:00,
2013-08-12 16:19:00,69.8,68.0,30.08,NNW,348,0.0,0.0,94,0.04,,,0.02,WeatherCatV1.20B785,2013-08-12 20:19:00,
2013-08-12 16:24:00,69.5,67.7,30.08,NNW,348,0.0,0.0,94,0.04,,,0.02,WeatherCatV1.20B785,2013-08-12 20:24:00,
2013-08-12 16:29:00,69.2,67.7,30.08,NNW,348,0.0,0.0,95,0.05,,,0.03,WeatherCatV1.20B785,2013-08-12 20:29:00,
2013-08-12 16:34:00,69.0,67.5,30.08,NNW,348,0.0,0.0,95,0.05,,,0.03,WeatherCatV1.20B785,2013-08-12 20:34:00,
2013-08-12 16:39:00,68.9,67.7,30.07,NNW,348,0.0,0.0,96,0.04,,,0.04,WeatherCatV1.20B785,2013-08-12 20:39:00,
2013-08-12 16:44:00,69.0,68.1,30.07,North,350,0.0,0.0,97,0.04,,,0.04,WeatherCatV1.20B785,2013-08-12 20:44:00,
2013-08-12 16:49:00,69.0,68.1,30.07,North,350,0.0,0.0,97,0.04,,,0.04,WeatherCatV1.20B785,2013-08-12 20:49:00,
2013-08-12 16:54:00,69.2,68.3,30.07,North,350,0.0,1.0,97,0.04,,,0.04,WeatherCatV1.20B785,2013-08-12 20:54:00,
2013-08-12 16:59:00,69.3,68.7,30.07,North,350,0.0,0.0,98,0.00,,,0.04,WeatherCatV1.20B785,2013-08-12 20:59:00,
2013-08-12 17:04:00,69.6,69.0,30.07,North,350,0.0,0.0,98,0.00,,,0.04,WeatherCatV1.20B785,2013-08-12 21:04:00,
2013-08-12 17:09:00,69.9,69.3,30.07,North,355,0.0,1.0,98,0.00,,,0.04,WeatherCatV1.20B785,2013-08-12 21:09:00,
2013-08-12 17:14:00,70.0,69.4,30.06,North,355,0.0,1.0,98,0.00,,,0.04,WeatherCatV1.20B785,2013-08-12 21:14:00,
2013-08-12 17:19:00,70.1,69.2,30.06,NNW,347,0.0,2.0,97,0.00,,,0.04,WeatherCatV1.20B785,2013-08-12 21:19:00,
2013-08-12 17:24:00,70.2,69.3,30.06,NNW,347,0.0,2.0,97,0.00,,,0.04,WeatherCatV1.20B785,2013-08-12 21:24:00,
2013-08-12 17:29:00,70.1,68.9,30.06,NNW,346,0.0,1.0,96,0.00,,,0.04,WeatherCatV1.20B785,2013-08-12 21:29:00,
2013-08-12 17:34:00,69.8,68.3,30.05,NNW,347,0.0,0.0,95,0.00,,,0.04,WeatherCatV1.20B785,2013-08-12 21:34:00,
2013-08-12 17:39:00,69.8,68.6,30.05,NNW,346,0.0,0.0,96,0.00,,,0.04,WeatherCatV1.20B785,2013-08-12 21:39:00,
2013-08-12 17:44:00,69.8,68.9,30.05,NNW,346,0.0,1.0,97,0.00,,,0.04,WeatherCatV1.20B785,2013-08-12 21:44:00,
2013-08-12 17:49:00,70.0,69.1,30.05,NNW,348,0.0,0.0,97,0.00,,,0.04,WeatherCatV1.20B785,2013-08-12 21:49:00,
2013-08-12 17:54:00,70.2,69.3,30.05,NNW,348,0.0,1.0,97,0.00,,,0.04,WeatherCatV1.20B785,2013-08-12 21:54:00,
2013-08-12 17:59:00,70.1,69.2,30.05,North,351,0.0,0.0,97,0.00,,,0.04,WeatherCatV1.20B785,2013-08-12 21:59:00,
2013-08-12 18:04:00,70.2,69.3,30.05,North,351,0.0,0.0,97,0.00,,,0.04,WeatherCatV1.20B785,2013-08-12 22:04:00,
2013-08-12 18:09:00,70.1,69.2,30.05,North,351,0.0,0.0,97,0.00,,,0.04,WeatherCatV1.20B785,2013-08-12 22:09:00,
2013-08-12 18:14:00,70.0,69.1,30.05,North,355,0.0,0.0,97,0.00,,,0.04,WeatherCatV1.20B785,2013-08-12 22:14:00,
2013-08-12 18:19:00,70.0,69.1,30.05,North,355,0.0,0.0,97,0.00,,,0.04,WeatherCatV1.20B785,2013-08-12 22:19:00,
2013-08-12 18:24:00,70.1,69.2,30.05,North,355,0.0,0.0,97,0.00,,,0.04,WeatherCatV1.20B785,2013-08-12 22:24:00,
2013-08-12 18:29:00,70.3,69.4,30.05,North,355,0.0,0.0,97,0.00,,,0.04,WeatherCatV1.20B785,2013-08-12 22:29:00,
2013-08-12 18:34:00,70.4,69.5,30.05,North,355,0.0,0.0,97,0.00,,,0.04,WeatherCatV1.20B785,2013-08-12 22:34:00,
2013-08-12 18:39:00,70.3,69.4,30.05,North,355,0.0,0.0,97,0.00,,,0.04,WeatherCatV1.20B785,2013-08-12 22:39:00,
2013-08-12 18:44:00,70.4,69.5,30.05,North,355,0.0,0.0,97,0.00,,,0.04,WeatherCatV1.20B785,2013-08-12 22:44:00,
2013-08-12 18:49:00,70.5,69.6,30.05,North,355,0.0,0.0,97,0.00,,,0.04,WeatherCatV1.20B785,2013-08-12 22:49:00,
2013-08-12 18:54:00,70.3,69.4,30.05,North,355,0.0,0.0,97,0.00,,,0.04,WeatherCatV1.20B785,2013-08-12 22:54:00,
2013-08-12 18:59:00,70.2,69.0,30.05,North,355,0.0,0.0,96,0.00,,,0.04,WeatherCatV1.20B785,2013-08-12 22:59:00,
2013-08-12 19:04:00,70.1,69.2,30.04,North,355,0.0,0.0,97,0.00,,,0.04,WeatherCatV1.20B785,2013-08-12 23:04:00,
2013-08-12 19:09:00,70.1,69.2,30.04,North,355,0.0,3.0,97,0.00,,,0.04,WeatherCatV1.20B785,2013-08-12 23:09:00,
2013-08-12 19:14:00,69.9,68.7,30.04,North,355,0.0,0.0,96,0.00,,,0.04,WeatherCatV1.20B785,2013-08-12 23:14:00,
2013-08-12 19:19:00,69.6,68.4,30.04,North,355,0.0,0.0,96,0.00,,,0.04,WeatherCatV1.20B785,2013-08-12 23:19:00,
2013-08-12 19:24:00,69.3,67.8,30.04,North,355,0.0,0.0,95,0.00,,,0.04,WeatherCatV1.20B785,2013-08-12 23:24:00,
2013-08-12 19:29:00,69.1,67.9,30.03,North,355,0.0,0.0,96,0.00,,,0.04,WeatherCatV1.20B785,2013-08-12 23:29:00,
2013-08-12 19:34:00,69.0,67.8,30.03,North,355,0.0,0.0,96,0.00,,,0.04,WeatherCatV1.20B785,2013-08-12 23:34:00,
2013-08-12 19:39:00,68.8,67.6,30.04,North,355,0.0,0.0,96,0.00,,,0.04,WeatherCatV1.20B785,2013-08-12 23:39:00,
2013-08-12 19:44:00,68.6,67.4,30.04,North,355,0.0,0.0,96,0.00,,,0.04,WeatherCatV1.20B785,2013-08-12 23:44:00,
2013-08-12 19:49:00,68.4,67.2,30.04,North,355,0.0,0.0,96,0.00,,,0.04,WeatherCatV1.20B785,2013-08-12 23:49:00,
2013-08-12 19:54:00,68.3,67.1,30.05,North,355,0.0,0.0,96,0.00,,,0.04,WeatherCatV1.20B785,2013-08-12 23:54:00,
2013-08-12 19:59:00,68.3,67.4,30.05,North,355,0.0,0.0,97,0.00,,,0.04,WeatherCatV1.20B785,2013-08-12 23:59:00,
2013-08-12 20:04:00,68.1,66.9,30.05,North,355,0.0,0.0,96,0.00,,,0.04,WeatherCatV1.20B785,2013-08-13 00:04:00,
2013-08-12 20:09:00,68.0,66.8,30.05,North,355,0.0,1.0,96,0.00,,,0.04,WeatherCatV1.20B785,2013-08-13 00:09:00,
2013-08-12 20:14:00,67.9,66.7,30.05,North,355,0.0,1.0,96,0.00,,,0.04,WeatherCatV1.20B785,2013-08-13 00:14:00,
2013-08-12 20:19:00,67.9,66.7,30.05,North,355,0.0,0.0,96,0.00,,,0.04,WeatherCatV1.20B785,2013-08-13 00:19:00,
2013-08-12 20:24:00,67.9,66.7,30.05,North,355,0.0,0.0,96,0.00,,,0.04,WeatherCatV1.20B785,2013-08-13 00:24:00,
2013-08-12 20:29:00,67.9,66.7,30.05,North,355,0.0,0.0,96,0.00,,,0.04,WeatherCatV1.20B785,2013-08-13 00:29:00,
2013-08-12 20:34:00,67.8,66.9,30.05,North,355,0.0,1.0,97,0.00,,,0.04,WeatherCatV1.20B785,2013-08-13 00:34:00,
2013-08-12 20:39:00,67.7,66.8,30.06,North,355,0.0,0.0,97,0.00,,,0.04,WeatherCatV1.20B785,2013-08-13 00:39:00,
2013-08-12 20:44:00,67.6,66.7,30.06,North,355,0.0,1.0,97,0.00,,,0.04,WeatherCatV1.20B785,2013-08-13 00:44:00,
2013-08-12 20:49:00,67.6,66.4,30.06,North,355,0.0,0.0,96,0.00,,,0.04,WeatherCatV1.20B785,2013-08-13 00:49:00,
2013-08-12 20:54:00,67.6,66.4,30.06,North,355,0.0,0.0,96,0.00,,,0.04,WeatherCatV1.20B785,2013-08-13 00:54:00,
2013-08-12 20:59:00,67.6,66.4,30.06,North,355,0.0,0.0,96,0.00,,,0.04,WeatherCatV1.20B785,2013-08-13 00:59:00,
2013-08-12 21:04:00,67.6,66.4,30.06,North,355,0.0,1.0,96,0.00,,,0.04,WeatherCatV1.20B785,2013-08-13 01:04:00,
2013-08-12 21:09:00,67.6,66.4,30.06,North,355,0.0,0.0,96,0.00,,,0.04,WeatherCatV1.20B785,2013-08-13 01:09:00,
2013-08-12 21:14:00,67.6,66.4,30.06,North,355,0.0,0.0,96,0.00,,,0.04,WeatherCatV1.20B785,2013-08-13 01:14:00,
2013-08-12 21:19:00,67.6,66.1,30.06,North,355,0.0,1.0,95,0.00,,,0.04,WeatherCatV1.20B785,2013-08-13 01:19:00,
2013-08-12 21:24:00,67.7,66.2,30.06,North,355,0.0,0.0,95,0.00,,,0.04,WeatherCatV1.20B785,2013-08-13 01:24:00,
2013-08-12 21:29:00,67.6,66.1,30.06,North,355,0.0,1.0,95,0.00,,,0.04,WeatherCatV1.20B785,2013-08-13 01:29:00,
2013-08-12 21:34:00,67.5,66.0,30.06,North,355,0.0,0.0,95,0.00,,,0.04,WeatherCatV1.20B785,2013-08-13 01:34:00,
2013-08-12 21:39:00,67.4,65.9,30.07,North,355,0.0,0.0,95,0.00,,,0.04,WeatherCatV1.20B785,2013-08-13 01:39:00,
2013-08-12 21:44:00,67.4,66.2,30.07,North,355,0.0,0.0,96,0.00,,,0.04,WeatherCatV1.20B785,2013-08-13 01:44:00,
2013-08-12 21:49:00,67.5,66.3,30.07,North,355,0.0,0.0,96,0.00,,,0.04,WeatherCatV1.20B785,2013-08-13 01:49:00,
2013-08-12 21:54:00,67.5,66.3,30.07,North,355,0.0,0.0,96,0.00,,,0.04,WeatherCatV1.20B785,2013-08-13 01:54:00,
2013-08-12 21:59:00,67.4,65.9,30.06,North,355,0.0,1.0,95,0.00,,,0.04,WeatherCatV1.20B785,2013-08-13 01:59:00,
2013-08-12 22:04:00,67.3,66.1,30.07,North,355,0.0,0.0,96,0.00,,,0.04,WeatherCatV1.20B785,2013-08-13 02:04:00,
2013-08-12 22:09:00,67.2,66.0,30.07,North,355,0.0,0.0,96,0.00,,,0.04,WeatherCatV1.20B785,2013-08-13 02:09:00,
2013-08-12 22:14:00,67.1,65.9,30.07,North,355,0.0,0.0,96,0.00,,,0.04,WeatherCatV1.20B785,2013-08-13 02:14:00,
2013-08-12 22:19:00,67.2,66.0,30.07,North,355,0.0,2.0,96,0.00,,,0.04,WeatherCatV1.20B785,2013-08-13 02:19:00,
2013-08-12 22:24:00,67.1,65.9,30.06,North,355,0.0,0.0,96,0.00,,,0.04,WeatherCatV1.20B785,2013-08-13 02:24:00,
2013-08-12 22:29:00,67.0,65.8,30.06,North,355,0.0,0.0,96,0.00,,,0.04,WeatherCatV1.20B785,2013-08-13 02:29:00,
2013-08-12 22:34:00,66.8,65.6,30.06,North,355,0.0,1.0,96,0.00,,,0.04,WeatherCatV1.20B785,2013-08-13 02:34:00,
2013-08-12 22:39:00,66.8,65.9,30.07,North,355,0.0,0.0,97,0.00,,,0.04,WeatherCatV1.20B785,2013-08-13 02:39:00,
2013-08-12 22:44:00,66.9,66.0,30.07,North,355,0.0,0.0,97,0.00,,,0.04,WeatherCatV1.20B785,2013-08-13 02:44:00,
2013-08-12 22:49:00,66.9,66.0,30.07,North,355,0.0,0.0,97,0.00,,,0.04,WeatherCatV1.20B785,2013-08-13 02:49:00,
2013-08-12 22:54:00,66.9,66.0,30.06,North,355,0.0,0.0,97,0.00,,,0.04,WeatherCatV1.20B785,2013-08-13 02:54:00,
2013-08-12 22:59:00,67.0,66.1,30.06,North,355,0.0,1.0,97,0.00,,,0.04,WeatherCatV1.20B785,2013-08-13 02:59:00,
2013-08-12 23:04:00,67.1,66.2,30.06,North,355,0.0,0.0,97,0.00,,,0.04,WeatherCatV1.20B785,2013-08-13 03:04:00,
2013-08-12 23:09:00,67.2,66.3,30.06,North,355,0.0,0.0,97,0.00,,,0.04,WeatherCatV1.20B785,2013-08-13 03:09:00,
2013-08-12 23:14:00,67.2,66.0,30.06,North,355,0.0,0.0,96,0.00,,,0.04,WeatherCatV1.20B785,2013-08-13 03:14:00,
2013-08-12 23:19:00,67.2,66.0,30.05,North,355,0.0,0.0,96,0.00,,,0.04,WeatherCatV1.20B785,2013-08-13 03:19:00,
2013-08-12 23:24:00,67.3,66.1,30.05,North,355,0.0,0.0,96,0.00,,,0.04,WeatherCatV1.20B785,2013-08-13 03:24:00,
2013-08-12 23:29:00,67.3,66.1,30.05,North,355,1.0,2.0,96,0.00,,,0.04,WeatherCatV1.20B785,2013-08-13 03:29:00,
2013-08-12 23:34:00,67.3,66.1,30.05,North,355,0.0,0.0,96,0.00,,,0.04,WeatherCatV1.20B785,2013-08-13 03:34:00,
2013-08-12 23:39:00,67.3,65.8,30.05,North,355,0.0,0.0,95,0.00,,,0.04,WeatherCatV1.20B785,2013-08-13 03:39:00,
2013-08-12 23:44:00,67.3,65.8,30.05,North,355,0.0,0.0,95,0.00,,,0.04,WeatherCatV1.20B785,2013-08-13 03:44:00,
2013-08-12 23:52:00,67.4,65.9,30.05,North,355,0.0,1.0,95,0.00,,,0.04,WeatherCatV1.20B785,2013-08-13 03:52:00,
2013-08-12 23:57:00,67.4,65.9,30.04,North,355,0.0,0.0,95,0.00,,,0.04,WeatherCatV1.20B785,2013-08-13 03:57:00,